Zurück zum Katalog

FENGYUN 2G AKM

AktivGEO
NORAD 40369·ROCKET BODY·🇨🇳 China

Gestartet Dec 31, 2014 von Xichang Satellite Launch Center

Loading…

TLE

AktuellSource: Space-Track

Epoche: Sep 14, 2026, 04:58 UTC

1 40369U 14090C   26257.20716371 -.00000128  00000-0  00000-0 0  9997
2 40369   7.7752  67.4969 0048433 174.1981 186.0186  0.99591825 42527

Verfolge FENGYUN 2G AKM in Echtzeit mit AllMySat

Download on the App Store